| time (UTC) | temp F | wind direction | speed MPH | gust MPH | rain 1hr in | rain 24hr in | rain mn in | humidity % | barometer mb |
| 20260506123557 | 75 | 42 | 2.0 | 4.0 | 0.00 | 0.00 | 0.00 | 98 | 1011.5 |
| 20260506123051 | 75 | 42 | 2.0 | 4.0 | 0.00 | 0.00 | 0.00 | 98 | 1011.3 |
| 20260506122545 | 75 | 42 | 2.0 | 4.0 | 0.00 | 0.00 | 0.00 | 98 | 1011.3 |
| 20260506122039 | 74 | 42 | 1.0 | 4.0 | 0.00 | 0.00 | 0.00 | 98 | 1011.3 |
| 20260506121758 | 74 | 42 | 1.0 | 4.0 | 0.00 | 0.00 | 0.00 | 98 | 1011.1 |
| 20260506121027 | 74 | 42 | 1.0 | 4.0 | 0.00 | 0.00 | 0.00 | 98 | 1011.0 |
| 20260506120742 | 74 | 42 | 1.0 | 4.0 | 0.00 | 0.00 | 0.00 | 98 | 1011.1 |
| 20260506120014 | 74 | 42 | 2.0 | 5.0 | 0.00 | 0.00 | 0.00 | 98 | 1010.9 |
| 20260506115508 | 74 | 42 | 3.0 | 5.0 | 0.00 | 0.00 | 0.00 | 98 | 1010.8 |
| 20260506115002 | 74 | 42 | 3.0 | 5.0 | 0.00 | 0.00 | 0.00 | 97 | 1010.7 |
| 20260506114456 | 74 | 42 | 3.0 | 6.0 | 0.00 | 0.00 | 0.00 | 98 | 1010.5 |
| 20260506113951 | 74 | 42 | 2.0 | 6.0 | 0.00 | 0.00 | 0.00 | 97 | 1010.6 |
| 20260506113445 | 74 | 42 | 2.0 | 4.0 | 0.00 | 0.00 | 0.00 | 97 | 1010.5 |
| 20260506113432 | 74 | 42 | 2.0 | 4.0 | 0.00 | 0.00 | 0.00 | 97 | 1010.6 |
| 20260506112432 | 74 | 42 | 2.0 | 5.0 | 0.00 | 0.00 | 0.00 | 97 | 1010.5 |
| 20260506111927 | 74 | 42 | 3.0 | 5.0 | 0.00 | 0.00 | 0.00 | 97 | 1010.3 |
| 20260506111421 | 74 | 42 | 2.0 | 5.0 | 0.00 | 0.00 | 0.00 | 97 | 1010.2 |
| 20260506111138 | 74 | 42 | 2.0 | 4.0 | 0.00 | 0.00 | 0.00 | 97 | 1010.3 |
| 20260506110615 | 74 | 42 | 2.0 | 4.0 | 0.00 | 0.00 | 0.00 | 97 | 1010.4 |
| 20260506110503 | 74 | 42 | 1.0 | 4.0 | 0.00 | 0.00 | 0.00 | 97 | 1010.3 |
| 20260506105356 | 74 | 42 | 2.0 | 5.0 | 0.00 | 0.00 | 0.00 | 97 | 1010.4 |
| 20260506104850 | 74 | 42 | 2.0 | 5.0 | 0.00 | 0.00 | 0.00 | 97 | 1010.3 |
| 20260506104344 | 74 | 42 | 2.0 | 3.0 | 0.00 | 0.00 | 0.00 | 97 | 1010.5 |
| 20260506103843 | 74 | 42 | 2.0 | 4.0 | 0.00 | 0.00 | 0.00 | 97 | 1010.6 |
| 20260506103342 | 74 | 42 | 1.0 | 4.0 | 0.00 | 0.00 | 0.00 | 97 | 1010.7 |
| 20260506102842 | 74 | 42 | 1.0 | 3.0 | 0.00 | 0.00 | 0.00 | 97 | 1010.6 |
| 20260506102339 | 74 | 42 | 1.0 | 4.0 | 0.00 | 0.00 | 0.00 | 97 | 1010.6 |
| 20260506101837 | 74 | 42 | 1.0 | 4.0 | 0.00 | 0.00 | 0.00 | 97 | 1010.6 |
| 20260506101335 | 74 | 42 | 1.0 | 3.0 | 0.00 | 0.00 | 0.00 | 97 | 1010.7 |
| 20260506100835 | 73 | 42 | 1.0 | 3.0 | 0.00 | 0.00 | 0.00 | 97 | 1010.6 |
| 20260506100335 | 74 | 42 | 1.0 | 4.0 | 0.00 | 0.00 | 0.00 | 97 | 1010.6 |
| 20260506095836 | 73 | 42 | 2.0 | 4.0 | 0.00 | 0.00 | 0.00 | 97 | 1010.5 |
| 20260506095337 | 73 | 42 | 2.0 | 3.0 | 0.00 | 0.00 | 0.00 | 97 | 1010.6 |
| 20260506094833 | 73 | 42 | 1.0 | 3.0 | 0.00 | 0.00 | 0.00 | 97 | 1010.6 |
| 20260506094554 | 73 | 42 | 1.0 | 4.0 | 0.00 | 0.00 | 0.00 | 97 | 1010.5 |
| 20260506093832 | 73 | 42 | 2.0 | 6.0 | 0.00 | 0.00 | 0.00 | 97 | 1010.5 |
| 20260506093332 | 73 | 42 | 2.0 | 6.0 | 0.00 | 0.00 | 0.00 | 97 | 1010.5 |
| 20260506092831 | 73 | 42 | 1.0 | 4.0 | 0.00 | 0.00 | 0.00 | 97 | 1010.4 |
| 20260506092331 | 73 | 42 | 1.0 | 4.0 | 0.00 | 0.00 | 0.00 | 97 | 1010.4 |
| 20260506091829 | 73 | 42 | 1.0 | 3.0 | 0.00 | 0.00 | 0.00 | 97 | 1010.4 |
| 20260506091329 | 73 | 42 | 1.0 | 3.0 | 0.00 | 0.00 | 0.00 | 97 | 1010.4 |
| 20260506091041 | 73 | 42 | 1.0 | 3.0 | 0.00 | 0.00 | 0.00 | 97 | 1010.3 |
| 20260506090323 | 73 | 42 | 1.0 | 3.0 | 0.00 | 0.00 | 0.00 | 97 | 1010.4 |
| 20260506085822 | 73 | 42 | 1.0 | 4.0 | 0.00 | 0.00 | 0.00 | 97 | 1010.4 |
| 20260506085545 | 73 | 42 | 2.0 | 4.0 | 0.00 | 0.00 | 0.00 | 97 | 1010.4 |
| 20260506084824 | 73 | 42 | 2.0 | 4.0 | 0.00 | 0.00 | 0.00 | 97 | 1010.5 |
| 20260506084324 | 73 | 42 | 2.0 | 3.0 | 0.00 | 0.00 | 0.00 | 97 | 1010.6 |
| 20260506083823 | 73 | 42 | 1.0 | 4.0 | 0.00 | 0.00 | 0.00 | 97 | 1010.5 |
| 20260506083540 | 73 | 42 | 1.0 | 4.0 | 0.00 | 0.00 | 0.00 | 97 | 1010.5 |
| 20260506082822 | 73 | 42 | 2.0 | 4.0 | 0.00 | 0.00 | 0.00 | 97 | 1010.6 |
| 20260506082320 | 73 | 42 | 2.0 | 4.0 | 0.00 | 0.00 | 0.00 | 97 | 1010.7 |
| 20260506081822 | 73 | 42 | 2.0 | 6.0 | 0.00 | 0.00 | 0.00 | 97 | 1010.8 |
| 20260506081541 | 73 | 42 | 2.0 | 6.0 | 0.00 | 0.00 | 0.00 | 97 | 1010.7 |
| 20260506080817 | 73 | 42 | 1.0 | 3.0 | 0.00 | 0.00 | 0.00 | 97 | 1010.6 |
| 20260506080318 | 73 | 42 | 1.0 | 2.0 | 0.00 | 0.00 | 0.00 | 97 | 1010.7 |
| 20260506073309 | 73 | 42 | 1.0 | 4.0 | 0.00 | 0.00 | 0.00 | 97 | 1010.9 |
| 20260506072810 | 73 | 42 | 1.0 | 3.0 | 0.00 | 0.00 | 0.00 | 97 | 1010.8 |
| 20260506072310 | 73 | 42 | 2.0 | 4.0 | 0.00 | 0.00 | 0.00 | 97 | 1011.0 |
| 20260506071809 | 73 | 42 | 2.0 | 5.0 | 0.00 | 0.00 | 0.00 | 96 | 1011.0 |
| 20260506071310 | 73 | 42 | 2.0 | 5.0 | 0.00 | 0.00 | 0.00 | 96 | 1011.0 |
| 20260506070808 | 73 | 42 | 2.0 | 4.0 | 0.00 | 0.00 | 0.00 | 96 | 1010.9 |
| 20260506070309 | 73 | 42 | 2.0 | 5.0 | 0.00 | 0.00 | 0.00 | 96 | 1010.9 |
| 20260506061808 | 73 | 42 | 1.0 | 4.0 | 0.00 | 0.00 | 0.00 | 96 | 1010.8 |
| 20260506061310 | 73 | 42 | 1.0 | 4.0 | 0.00 | 0.00 | 0.00 | 96 | 1011.1 |
| 20260506060809 | 73 | 42 | 1.0 | 3.0 | 0.00 | 0.00 | 0.00 | 96 | 1011.2 |
| 20260506060309 | 73 | 42 | 1.0 | 3.0 | 0.00 | 0.00 | 0.00 | 96 | 1011.3 |
| 20260506051245 | 73 | 42 | 1.0 | 4.0 | 0.00 | 0.00 | 0.00 | 95 | 1011.3 |
| 20260506050739 | 73 | 42 | 1.0 | 4.0 | 0.00 | 0.00 | 0.00 | 95 | 1011.3 |
| 20260506050239 | 73 | 42 | 1.0 | 3.0 | 0.00 | 0.00 | 0.00 | 95 | 1011.3 |
| 20260506044235 | 73 | 42 | 2.0 | 4.0 | 0.00 | 0.00 | 0.00 | 94 | 1011.1 |
| 20260506043732 | 73 | 42 | 2.0 | 4.0 | 0.00 | 0.00 | 0.00 | 94 | 1011.2 |
| 20260506043234 | 73 | 42 | 2.0 | 5.0 | 0.00 | 0.00 | 0.00 | 94 | 1011.2 |
| 20260506042952 | 73 | 42 | 2.0 | 5.0 | 0.00 | 0.00 | 0.00 | 94 | 1011.1 |
| 20260506042232 | 73 | 42 | 2.0 | 5.0 | 0.00 | 0.00 | 0.00 | 93 | 1011.2 |
| 20260506041729 | 73 | 42 | 3.0 | 7.0 | 0.00 | 0.00 | 0.00 | 93 | 1011.1 |
| 20260506041233 | 74 | 42 | 3.0 | 7.0 | 0.00 | 0.00 | 0.00 | 93 | 1011.3 |
| 20260506040729 | 74 | 42 | 3.0 | 7.0 | 0.00 | 0.00 | 0.00 | 93 | 1011.3 |
| 20260506040228 | 74 | 42 | 3.0 | 8.0 | 0.00 | 0.00 | 0.00 | 92 | 1011.1 |
| 20260506035727 | 74 | 42 | 3.0 | 8.0 | 0.00 | 0.00 | 0.00 | 92 | 1011.0 |
| 20260506035227 | 74 | 42 | 3.0 | 6.0 | 0.00 | 0.00 | 0.00 | 92 | 1011.0 |
| 20260506034726 | 74 | 42 | 4.0 | 9.0 | 0.00 | 0.00 | 0.00 | 92 | 1010.9 |
| 20260506034715 | 74 | 42 | 4.0 | 9.0 | 0.00 | 0.00 | 0.00 | 91 | 1011.0 |
| 20260506033722 | 74 | 42 | 4.0 | 8.0 | 0.00 | 0.00 | 0.00 | 91 | 1011.0 |
| 20260506033436 | 74 | 42 | 4.0 | 8.0 | 0.00 | 0.00 | 0.00 | 91 | 1010.8 |
| 20260506032712 | 74 | 42 | 4.0 | 7.0 | 0.00 | 0.00 | 0.00 | 91 | 1010.8 |
| 20260506032210 | 74 | 42 | 4.0 | 8.0 | 0.00 | 0.00 | 0.00 | 91 | 1010.8 |
| 20260506031710 | 75 | 42 | 4.0 | 8.0 | 0.00 | 0.00 | 0.00 | 91 | 1010.6 |
| 20260506031208 | 75 | 42 | 3.0 | 8.0 | 0.00 | 0.00 | 0.00 | 91 | 1010.7 |
| 20260506030709 | 75 | 42 | 3.0 | 8.0 | 0.00 | 0.00 | 0.00 | 91 | 1010.7 |
| 20260506030210 | 75 | 42 | 4.0 | 7.0 | 0.00 | 0.00 | 0.00 | 90 | 1010.7 |
| 20260506025709 | 75 | 42 | 4.0 | 8.0 | 0.00 | 0.00 | 0.00 | 90 | 1010.5 |
| 20260506025208 | 75 | 42 | 4.0 | 8.0 | 0.00 | 0.00 | 0.00 | 90 | 1010.5 |
| 20260506024708 | 75 | 42 | 4.0 | 8.0 | 0.00 | 0.00 | 0.00 | 91 | 1010.3 |
| 20260506024439 | 75 | 42 | 4.0 | 9.0 | 0.00 | 0.00 | 0.00 | 90 | 1010.4 |
| 20260506023929 | 75 | 42 | 4.0 | 9.0 | 0.00 | 0.00 | 0.00 | 90 | 1010.5 |
| 20260506023434 | 75 | 42 | 4.0 | 9.0 | 0.00 | 0.00 | 0.00 | 90 | 1010.3 |
| 20260506022930 | 75 | 42 | 3.0 | 7.0 | 0.00 | 0.00 | 0.00 | 90 | 1010.4 |
| 20260506022425 | 75 | 42 | 3.0 | 6.0 | 0.00 | 0.00 | 0.00 | 90 | 1010.5 |
| 20260506021703 | 76 | 42 | 2.0 | 5.0 | 0.00 | 0.00 | 0.00 | 89 | 1010.5 |
| 20260506021202 | 76 | 42 | 2.0 | 6.0 | 0.00 | 0.00 | 0.00 | 89 | 1010.4 |
| 20260506020926 | 76 | 42 | 3.0 | 6.0 | 0.00 | 0.00 | 0.00 | 89 | 1010.2 |
| 20260506020202 | 76 | 42 | 3.0 | 6.0 | 0.00 | 0.00 | 0.00 | 89 | 1010.3 |
| 20260506015704 | 76 | 42 | 3.0 | 6.0 | 0.00 | 0.00 | 0.00 | 88 | 1010.2 |
| 20260506015203 | 76 | 42 | 3.0 | 6.0 | 0.00 | 0.00 | 0.00 | 88 | 1010.2 |
| 20260506014704 | 76 | 42 | 3.0 | 6.0 | 0.00 | 0.00 | 0.00 | 88 | 1010.3 |
| 20260506014202 | 76 | 42 | 3.0 | 6.0 | 0.00 | 0.00 | 0.00 | 88 | 1010.4 |
| 20260506013704 | 76 | 42 | 3.0 | 6.0 | 0.00 | 0.00 | 0.00 | 88 | 1010.4 |
| 20260506013204 | 76 | 42 | 3.0 | 9.0 | 0.00 | 0.00 | 0.00 | 88 | 1010.1 |
| 20260506012703 | 77 | 42 | 4.0 | 9.0 | 0.00 | 0.00 | 0.00 | 87 | 1009.9 |
| 20260506012201 | 77 | 42 | 3.0 | 7.0 | 0.00 | 0.00 | 0.00 | 87 | 1009.8 |
| 20260506011928 | 77 | 42 | 3.0 | 7.0 | 0.00 | 0.00 | 0.00 | 87 | 1009.8 |
| 20260506011420 | 77 | 42 | 4.0 | 9.0 | 0.00 | 0.00 | 0.00 | 86 | 1009.9 |
| 20260506010918 | 77 | 42 | 4.0 | 9.0 | 0.00 | 0.00 | 0.00 | 86 | 1009.8 |
| 20260506010156 | 77 | 281 | 4.0 | 11.0 | 0.00 | 0.00 | 0.00 | 86 | 1009.8 |
| 20260506005653 | 78 | 40 | 4.0 | 11.0 | 0.00 | 0.00 | 0.00 | 85 | 1009.8 |
| 20260506005154 | 78 | 7 | 4.0 | 9.0 | 0.00 | 0.00 | 0.00 | 85 | 1009.8 |
| 20260506004651 | 78 | 290 | 3.0 | 8.0 | 0.00 | 0.00 | 0.00 | 84 | 1009.7 |
| 20260506004151 | 78 | 279 | 3.0 | 9.0 | 0.00 | 0.00 | 0.00 | 84 | 1009.8 |
| 20260506003645 | 78 | 215 | 4.0 | 9.0 | 0.00 | 0.00 | 0.00 | 83 | 1009.6 |
| 20260506003139 | 78 | 48 | 4.0 | 9.0 | 0.00 | 0.00 | 0.00 | 83 | 1009.6 |
| 20260506002633 | 78 | 40 | 4.0 | 11.0 | 0.00 | 0.00 | 0.00 | 83 | 1009.7 |
| 20260506002128 | 79 | 40 | 4.0 | 11.0 | 0.00 | 0.00 | 0.00 | 82 | 1009.5 |
| 20260506001629 | 79 | 227 | 3.0 | 8.0 | 0.00 | 0.00 | 0.00 | 82 | 1009.6 |
| 20260506001130 | 79 | 44 | 4.0 | 10.0 | 0.00 | 0.00 | 0.00 | 82 | 1009.8 |
| 20260506000626 | 79 | 43 | 5.0 | 10.0 | 0.00 | 0.00 | 0.00 | 82 | 1009.7 |
| 20260506000126 | 79 | 42 | 4.0 | 10.0 | 0.00 | 0.00 | 0.00 | 82 | 1009.8 |
| 20260505235623 | 79 | 40 | 4.0 | 10.0 | 0.00 | 0.00 | 0.00 | 81 | 1009.9 |
| 20260505235122 | 80 | 42 | 4.0 | 9.0 | 0.00 | 0.00 | 0.00 | 81 | 1010.0 |
| 20260505234623 | 80 | 42 | 5.0 | 11.0 | 0.00 | 0.00 | 0.00 | 80 | 1010.0 |
| 20260505234347 | 80 | 43 | 5.0 | 11.0 | 0.00 | 0.00 | 0.00 | 80 | 1009.9 |
| 20260505233622 | 80 | 43 | 4.0 | 9.0 | 0.00 | 0.00 | 0.00 | 80 | 1010.0 |
| 20260505233122 | 80 | 43 | 4.0 | 10.0 | 0.00 | 0.00 | 0.00 | 80 | 1010.0 |
| 20260505232622 | 80 | 44 | 5.0 | 11.0 | 0.00 | 0.00 | 0.00 | 78 | 1009.9 |
| 20260505232123 | 81 | 45 | 4.0 | 11.0 | 0.00 | 0.00 | 0.00 | 78 | 1010.0 |
| 20260505231623 | 81 | 44 | 4.0 | 8.0 | 0.00 | 0.00 | 0.00 | 77 | 1010.0 |
| 20260505231123 | 81 | 45 | 5.0 | 10.0 | 0.00 | 0.00 | 0.00 | 76 | 1009.9 |
| 20260505230621 | 81 | 45 | 5.0 | 10.0 | 0.00 | 0.00 | 0.00 | 76 | 1009.9 |
| 20260505230345 | 81 | 43 | 4.0 | 10.0 | 0.00 | 0.00 | 0.00 | 76 | 1009.9 |
| 20260505225622 | 81 | 43 | 4.0 | 10.0 | 0.00 | 0.00 | 0.00 | 76 | 1010.0 |
| 20260505225115 | 81 | 43 | 4.0 | 10.0 | 0.00 | 0.00 | 0.00 | 75 | 1010.0 |
| 20260505224610 | 81 | 43 | 5.0 | 10.0 | 0.00 | 0.00 | 0.00 | 76 | 1009.8 |
| 20260505224104 | 81 | 40 | 5.0 | 11.0 | 0.00 | 0.00 | 0.00 | 75 | 1009.8 |
| 20260505223558 | 82 | 40 | 6.0 | 11.0 | 0.00 | 0.00 | 0.00 | 75 | 1009.9 |
| 20260505223052 | 82 | 42 | 6.0 | 11.0 | 0.00 | 0.00 | 0.00 | 75 | 1009.9 |
| 20260505222545 | 82 | 46 | 5.0 | 11.0 | 0.00 | 0.00 | 0.00 | 74 | 1009.9 |
| 20260505222037 | 82 | 40 | 5.0 | 12.0 | 0.00 | 0.00 | 0.00 | 74 | 1009.8 |
| 20260505221531 | 83 | 350 | 5.0 | 12.0 | 0.00 | 0.00 | 0.00 | 73 | 1009.9 |
| 20260505221030 | 83 | 281 | 5.0 | 11.0 | 0.00 | 0.00 | 0.00 | 74 | 1010.0 |
| 20260505220516 | 83 | 43 | 4.0 | 8.0 | 0.00 | 0.00 | 0.00 | 74 | 1010.1 |
| 20260505220008 | 83 | 43 | 5.0 | 9.0 | 0.00 | 0.00 | 0.00 | 75 | 1010.0 |
| 20260505215503 | 83 | 43 | 5.0 | 10.0 | 0.00 | 0.00 | 0.00 | 74 | 1010.0 |
| 20260505214956 | 83 | 43 | 5.0 | 15.0 | 0.00 | 0.00 | 0.00 | 73 | 1009.9 |
| 20260505214450 | 83 | 43 | 5.0 | 15.0 | 0.00 | 0.00 | 0.00 | 72 | 1009.9 |
| 20260505214202 | 83 | 44 | 5.0 | 11.0 | 0.00 | 0.00 | 0.00 | 73 | 1010.0 |
| 20260505213439 | 83 | 45 | 5.0 | 11.0 | 0.00 | 0.00 | 0.00 | 73 | 1010.1 |
| 20260505212933 | 83 | 43 | 4.0 | 11.0 | 0.00 | 0.00 | 0.00 | 75 | 1010.1 |
| 20260505212427 | 83 | 43 | 5.0 | 11.0 | 0.00 | 0.00 | 0.00 | 74 | 1010.1 |
| 20260505211921 | 83 | 49 | 5.0 | 11.0 | 0.00 | 0.00 | 0.00 | 74 | 1010.1 |
| 20260505211415 | 83 | 48 | 5.0 | 11.0 | 0.00 | 0.00 | 0.00 | 74 | 1010.0 |
| 20260505210909 | 83 | 42 | 6.0 | 11.0 | 0.00 | 0.00 | 0.00 | 74 | 1010.1 |
| 20260505210557 | 83 | 42 | 5.0 | 10.0 | 0.00 | 0.00 | 0.00 | 72 | 1010.2 |
| 20260505210444 | 83 | 42 | 5.0 | 11.0 | 0.00 | 0.00 | 0.00 | 73 | 1010.2 |
| 20260505205351 | 83 | 42 | 5.0 | 11.0 | 0.00 | 0.00 | 0.00 | 74 | 1010.3 |
| 20260505204844 | 83 | 42 | 5.0 | 11.0 | 0.00 | 0.00 | 0.00 | 73 | 1010.4 |
| 20260505204339 | 83 | 43 | 5.0 | 11.0 | 0.00 | 0.00 | 0.00 | 73 | 1010.4 |
| 20260505203832 | 82 | 43 | 5.0 | 12.0 | 0.00 | 0.00 | 0.00 | 73 | 1010.5 |
| 20260505203327 | 83 | 47 | 4.0 | 12.0 | 0.00 | 0.00 | 0.00 | 72 | 1010.6 |
| 20260505203307 | 83 | 48 | 4.0 | 11.0 | 0.00 | 0.00 | 0.00 | 73 | 1010.6 |
| 20260505202315 | 83 | 43 | 5.0 | 12.0 | 0.00 | 0.00 | 0.00 | 73 | 1010.7 |
| 20260505202035 | 83 | 48 | 4.0 | 12.0 | 0.00 | 0.00 | 0.00 | 73 | 1010.7 |
| 20260505201302 | 83 | 42 | 4.0 | 10.0 | 0.00 | 0.00 | 0.00 | 73 | 1010.7 |
| 20260505200757 | 83 | 42 | 4.0 | 9.0 | 0.00 | 0.00 | 0.00 | 73 | 1010.9 |
| 20260505200251 | 83 | 42 | 4.0 | 9.0 | 0.00 | 0.00 | 0.00 | 72 | 1010.9 |
| 20260505195745 | 83 | 42 | 3.0 | 8.0 | 0.00 | 0.00 | 0.00 | 73 | 1010.8 |
| 20260505195239 | 83 | 42 | 4.0 | 9.0 | 0.00 | 0.00 | 0.00 | 74 | 1010.8 |
| 20260505194732 | 83 | 42 | 4.0 | 9.0 | 0.00 | 0.00 | 0.00 | 73 | 1010.7 |
| 20260505194227 | 83 | 42 | 4.0 | 10.0 | 0.00 | 0.00 | 0.00 | 72 | 1010.8 |
| 20260505193725 | 83 | 42 | 4.0 | 9.0 | 0.00 | 0.00 | 0.00 | 72 | 1010.8 |
| 20260505193214 | 83 | 42 | 4.0 | 8.0 | 0.00 | 0.00 | 0.00 | 71 | 1011.0 |
| 20260505192939 | 83 | 40 | 3.0 | 10.0 | 0.00 | 0.00 | 0.00 | 70 | 1011.0 |
| 20260505192438 | 83 | 42 | 4.0 | 10.0 | 0.00 | 0.00 | 0.00 | 70 | 1011.0 |
| 20260505191709 | 83 | 42 | 4.0 | 8.0 | 0.00 | 0.00 | 0.00 | 70 | 1011.0 |
| 20260505191208 | 83 | 40 | 4.0 | 11.0 | 0.00 | 0.00 | 0.00 | 70 | 1011.0 |
| 20260505190709 | 83 | 48 | 4.0 | 11.0 | 0.00 | 0.00 | 0.00 | 69 | 1011.2 |
| 20260505190207 | 83 | 43 | 4.0 | 9.0 | 0.00 | 0.00 | 0.00 | 70 | 1011.2 |
| 20260505185708 | 83 | 43 | 4.0 | 10.0 | 0.00 | 0.00 | 0.00 | 70 | 1011.3 |
| 20260505185208 | 83 | 43 | 5.0 | 13.0 | 0.00 | 0.00 | 0.00 | 68 | 1011.1 |
| 20260505184709 | 83 | 85 | 5.0 | 13.0 | 0.00 | 0.00 | 0.00 | 70 | 1011.2 |
| 20260505184207 | 83 | 37 | 5.0 | 11.0 | 0.00 | 0.00 | 0.00 | 70 | 1011.1 |
| 20260505183705 | 83 | 260 | 5.0 | 11.0 | 0.00 | 0.00 | 0.00 | 70 | 1011.0 |
| 20260505183207 | 83 | 42 | 5.0 | 9.0 | 0.00 | 0.00 | 0.00 | 70 | 1011.1 |
| 20260505182704 | 83 | 43 | 5.0 | 10.0 | 0.00 | 0.00 | 0.00 | 69 | 1011.1 |
| 20260505182205 | 83 | 40 | 5.0 | 11.0 | 0.00 | 0.00 | 0.00 | 69 | 1011.2 |
| 20260505181705 | 82 | 42 | 5.0 | 11.0 | 0.00 | 0.00 | 0.00 | 70 | 1011.2 |
| 20260505181205 | 82 | 43 | 4.0 | 10.0 | 0.00 | 0.00 | 0.00 | 71 | 1011.2 |
| 20260505180703 | 82 | 40 | 5.0 | 9.0 | 0.00 | 0.00 | 0.00 | 71 | 1011.3 |
| 20260505180159 | 81 | 45 | 4.0 | 8.0 | 0.00 | 0.00 | 0.00 | 72 | 1011.5 |
| 20260505175920 | 81 | 39 | 5.0 | 12.0 | 0.00 | 0.00 | 0.00 | 72 | 1011.5 |
| 20260505175200 | 81 | 40 | 5.0 | 13.0 | 0.00 | 0.00 | 0.00 | 72 | 1011.4 |
| 20260505174703 | 81 | 42 | 5.0 | 13.0 | 0.00 | 0.00 | 0.00 | 72 | 1011.5 |
| 20260505174201 | 81 | 43 | 4.0 | 10.0 | 0.00 | 0.00 | 0.00 | 72 | 1011.6 |
| 20260505173700 | 81 | 43 | 4.0 | 10.0 | 0.00 | 0.00 | 0.00 | 73 | 1011.7 |
| 20260505173421 | 81 | 48 | 5.0 | 10.0 | 0.00 | 0.00 | 0.00 | 73 | 1011.6 |
| 20260505172700 | 81 | 42 | 5.0 | 10.0 | 0.00 | 0.00 | 0.00 | 72 | 1011.7 |
| 20260505172419 | 80 | 42 | 4.0 | 11.0 | 0.00 | 0.00 | 0.00 | 73 | 1011.7 |
| 20260505171926 | 80 | 40 | 5.0 | 10.0 | 0.00 | 0.00 | 0.00 | 72 | 1011.8 |
| 20260505171156 | 80 | 359 | 6.0 | 11.0 | 0.00 | 0.00 | 0.00 | 71 | 1011.9 |
| 20260505170657 | 80 | 42 | 6.0 | 11.0 | 0.00 | 0.00 | 0.00 | 72 | 1011.9 |
| 20260505170156 | 80 | 45 | 6.0 | 10.0 | 0.00 | 0.00 | 0.00 | 72 | 1012.1 |
| 20260505165656 | 80 | 49 | 6.0 | 12.0 | 0.00 | 0.00 | 0.00 | 74 | 1012.1 |
| 20260505165157 | 80 | 43 | 6.0 | 12.0 | 0.00 | 0.00 | 0.00 | 74 | 1012.0 |
| 20260505164656 | 80 | 305 | 6.0 | 11.0 | 0.00 | 0.00 | 0.00 | 73 | 1012.1 |
| 20260505164422 | 80 | 310 | 4.0 | 10.0 | 0.00 | 0.00 | 0.00 | 75 | 1012.1 |
| 20260505163656 | 80 | 43 | 4.0 | 9.0 | 0.00 | 0.00 | 0.00 | 74 | 1012.1 |
| 20260505163157 | 79 | 43 | 5.0 | 10.0 | 0.00 | 0.00 | 0.00 | 75 | 1012.1 |
| 20260505162657 | 80 | 42 | 4.0 | 11.0 | 0.00 | 0.00 | 0.00 | 73 | 1012.2 |
| 20260505162417 | 80 | 42 | 5.0 | 11.0 | 0.00 | 0.00 | 0.00 | 74 | 1012.0 |
| 20260505161657 | 79 | 42 | 5.0 | 11.0 | 0.00 | 0.00 | 0.00 | 74 | 1012.0 |
| 20260505161155 | 80 | 178 | 5.0 | 11.0 | 0.00 | 0.00 | 0.00 | 74 | 1012.1 |
| 20260505160654 | 79 | 242 | 5.0 | 11.0 | 0.00 | 0.00 | 0.00 | 74 | 1012.1 |
| 20260505160153 | 79 | 44 | 6.0 | 11.0 | 0.00 | 0.00 | 0.00 | 75 | 1012.0 |
| 20260505160146 | 78 | 46 | 5.0 | 11.0 | 0.00 | 0.00 | 0.00 | 75 | 1012.1 |
| 20260505153137 | 78 | 42 | 5.0 | 11.0 | 0.00 | 0.00 | 0.00 | 77 | 1012.0 |
| 20260505152634 | 78 | 43 | 5.0 | 11.0 | 0.00 | 0.00 | 0.00 | 77 | 1012.2 |
| 20260505152132 | 78 | 43 | 5.0 | 11.0 | 0.00 | 0.00 | 0.00 | 76 | 1012.0 |
| 20260505151852 | 77 | 45 | 5.0 | 9.0 | 0.00 | 0.00 | 0.00 | 77 | 1012.2 |
| 20260505151130 | 77 | 49 | 4.0 | 9.0 | 0.00 | 0.00 | 0.00 | 78 | 1012.1 |
| 20260505150628 | 77 | 43 | 5.0 | 11.0 | 0.00 | 0.00 | 0.00 | 79 | 1012.1 |
| 20260505150127 | 76 | 42 | 5.0 | 11.0 | 0.00 | 0.00 | 0.00 | 78 | 1012.2 |
| 20260505140623 | 74 | 43 | 3.0 | 7.0 | 0.00 | 0.00 | 0.00 | 81 | 1012.1 |
| 20260505140125 | 73 | 43 | 4.0 | 8.0 | 0.00 | 0.00 | 0.00 | 82 | 1012.0 |
| 20260505124500 | 66 | 43 | 1.0 | 2.0 | 0.00 | 0.00 | 0.00 | 92 | 1011.6 |